TGW416 WSSS-WBKK

Flight info

Callsign TGW416
Flight time 1h 56m
Altitude 35000
Route TOMAN3A TOMAN M646 DULIM DULIM2B
Aircraft A21N/M-SDE3FGHIRWY/LB1

Departure

Time 2026-05-01 11:52
Airport Singapore Changi Airport (WSSS)

Arrival

Time 2026-05-01 13:48
Airport Kota Kinabalu International Airport (WBKK)
Time Latitude Longitude Altitude Speed Heading
2026-05-01 11:30 1.36174 103.98789 24 ft 0 kts 112°
2026-05-01 11:40 1.36174 103.98788 24 ft 1 kts 112°
2026-05-01 11:40 1.36178 103.98778 27 ft 2 kts 112°
2026-05-01 11:41 1.36183 103.98766 28 ft 2 kts 112°
2026-05-01 11:41 1.36189 103.98751 26 ft 2 kts 112°
2026-05-01 11:41 1.36196 103.98735 27 ft 2 kts 105°
2026-05-01 11:41 1.36201 103.98719 27 ft 3 kts 129°
2026-05-01 11:42 1.36214 103.98705 28 ft 2 kts 164°
2026-05-01 11:42 1.36225 103.98704 27 ft 2 kts 201°
2026-05-01 11:42 1.36227 103.98705 27 ft 0 kts 202°
2026-05-01 11:45 1.36222 103.98703 28 ft 3 kts 202°
2026-05-01 11:45 1.36188 103.98688 27 ft 8 kts 203°
2026-05-01 11:46 1.36127 103.98662 25 ft 11 kts 203°
2026-05-01 11:46 1.36072 103.98632 26 ft 7 kts 221°
2026-05-01 11:46 1.36038 103.98579 24 ft 11 kts 239°
2026-05-01 11:46 1.35991 103.98511 27 ft 13 kts 219°
2026-05-01 11:47 1.35904 103.98469 27 ft 15 kts 201°
2026-05-01 11:47 1.35800 103.98426 27 ft 17 kts 202°
2026-05-01 11:47 1.35688 103.98378 25 ft 17 kts 203°
2026-05-01 11:47 1.35570 103.98328 25 ft 20 kts 202°
2026-05-01 11:48 1.35438 103.98273 27 ft 22 kts 203°
2026-05-01 11:48 1.35297 103.98214 27 ft 22 kts 202°
2026-05-01 11:48 1.35150 103.98151 26 ft 24 kts 203°
2026-05-01 11:48 1.35002 103.98089 27 ft 17 kts 203°
2026-05-01 11:49 1.34929 103.98058 27 ft 0 kts 204°
2026-05-01 11:49 1.34916 103.98052 26 ft 5 kts 203°
2026-05-01 11:49 1.34847 103.98024 26 ft 14 kts 202°
2026-05-01 11:49 1.34819 103.97981 26 ft 8 kts 286°
2026-05-01 11:50 1.34845 103.97921 27 ft 11 kts 294°
2026-05-01 11:50 1.34870 103.97860 26 ft 9 kts 293°
2026-05-01 11:50 1.34898 103.97795 24 ft 11 kts 292°
2026-05-01 11:50 1.34927 103.97765 24 ft 5 kts 351°
2026-05-01 11:51 1.34945 103.97771 26 ft 1 kts 25°
2026-05-01 11:51 1.34992 103.97792 25 ft 26 kts 24°
2026-05-01 11:51 1.35422 103.97973 26 ft 105 kts 22°
2026-05-01 11:51 1.36298 103.98342 26 ft 165 kts 22°
2026-05-01 11:52 1.37462 103.98835 369 ft 186 kts 22°
2026-05-01 11:52 1.38663 103.99335 1164 ft 188 kts 21°
2026-05-01 11:52 1.39885 103.99829 1974 ft 189 kts 22°
2026-05-01 11:52 1.40950 104.00653 2520 ft 206 kts 57°
2026-05-01 11:53 1.41382 104.02068 2995 ft 225 kts 88°
2026-05-01 11:53 1.41274 104.03717 3432 ft 250 kts 98°
2026-05-01 11:53 1.41063 104.05506 4103 ft 265 kts 96°
2026-05-01 11:53 1.40904 104.07390 4784 ft 282 kts 95°
2026-05-01 11:54 1.40751 104.09425 5274 ft 304 kts 94°
2026-05-01 11:54 1.40590 104.11579 5966 ft 315 kts 95°
2026-05-01 11:54 1.40420 104.13779 6868 ft 319 kts 95°
2026-05-01 11:54 1.40243 104.16006 7788 ft 321 kts 95°
2026-05-01 11:55 1.40067 104.18177 9148 ft 306 kts 95°
2026-05-01 11:55 1.39900 104.20241 10532 ft 290 kts 95°
2026-05-01 11:55 1.39740 104.22198 11843 ft 276 kts 95°
2026-05-01 11:55 1.39586 104.24080 12841 ft 273 kts 95°
2026-05-01 11:56 1.39427 104.26012 13442 ft 283 kts 95°
2026-05-01 11:56 1.39264 104.27982 14178 ft 286 kts 95°
2026-05-01 11:56 1.39099 104.29977 14885 ft 290 kts 95°
2026-05-01 11:56 1.38932 104.32000 15570 ft 294 kts 95°
2026-05-01 11:57 1.38761 104.34051 16246 ft 298 kts 95°
2026-05-01 11:57 1.38647 104.35425 16674 ft 301 kts 95°
2026-05-01 11:57 1.38416 104.38205 17516 ft 306 kts 95°
2026-05-01 11:57 1.38239 104.40346 18032 ft 315 kts 95°
2026-05-01 11:58 1.38052 104.42594 18209 ft 334 kts 95°
2026-05-01 11:58 1.37854 104.44974 18386 ft 353 kts 95°
2026-05-01 11:58 1.37428 104.50091 18834 ft 383 kts 95°
2026-05-01 11:59 1.37206 104.52753 19413 ft 386 kts 95°
2026-05-01 11:59 1.36983 104.55435 19994 ft 389 kts 95°
2026-05-01 11:59 1.36758 104.58138 20568 ft 392 kts 95°
2026-05-01 12:00 1.36301 104.63619 21630 ft 399 kts 95°
2026-05-01 12:00 1.36070 104.66393 22148 ft 402 kts 95°
2026-05-01 12:00 1.35602 104.72003 23146 ft 408 kts 95°
2026-05-01 12:01 1.35366 104.74836 23627 ft 411 kts 95°
2026-05-01 12:01 1.35127 104.77699 24102 ft 414 kts 95°
2026-05-01 12:01 1.34887 104.80575 24554 ft 417 kts 95°
2026-05-01 12:01 1.34645 104.83474 24993 ft 420 kts 95°
2026-05-01 12:02 1.34402 104.86391 25422 ft 423 kts 95°
2026-05-01 12:02 1.34190 104.89331 25831 ft 426 kts 91°
2026-05-01 12:02 1.34204 104.91292 26095 ft 427 kts 88°
2026-05-01 12:02 1.34287 104.94270 26484 ft 430 kts 88°
2026-05-01 12:03 1.34387 104.98239 26983 ft 433 kts 88°
2026-05-01 12:03 1.34460 105.01255 27344 ft 436 kts 89°
2026-05-01 12:03 1.34532 105.04291 27690 ft 438 kts 89°
2026-05-01 12:03 1.34581 105.06347 27925 ft 440 kts 89°
2026-05-01 12:04 1.34654 105.09412 28246 ft 442 kts 89°
2026-05-01 12:04 1.34728 105.12485 28559 ft 444 kts 89°
2026-05-01 12:04 1.34802 105.15577 28862 ft 446 kts 89°
2026-05-01 12:04 1.34876 105.18683 29154 ft 448 kts 89°
2026-05-01 12:05 1.34951 105.21804 29435 ft 450 kts 89°
2026-05-01 12:05 1.35101 105.28082 29984 ft 454 kts 89°
2026-05-01 12:05 1.35176 105.31241 30258 ft 456 kts 89°
2026-05-01 12:06 1.35252 105.34417 30529 ft 458 kts 89°
2026-05-01 12:06 1.35328 105.37603 30808 ft 460 kts 89°
2026-05-01 12:06 1.35405 105.40803 31074 ft 461 kts 89°
2026-05-01 12:06 1.35481 105.44008 31404 ft 461 kts 89°
2026-05-01 12:07 1.35556 105.47170 31751 ft 461 kts 89°
2026-05-01 12:07 1.35633 105.50406 32100 ft 460 kts 89°
2026-05-01 12:07 1.35708 105.53559 32427 ft 459 kts 89°
2026-05-01 12:07 1.35784 105.56748 32748 ft 459 kts 89°
2026-05-01 12:08 1.35859 105.59931 33058 ft 458 kts 89°
2026-05-01 12:08 1.35935 105.63108 33360 ft 457 kts 89°
2026-05-01 12:08 1.36010 105.66281 33647 ft 457 kts 89°
2026-05-01 12:08 1.36085 105.69452 33925 ft 456 kts 89°
2026-05-01 12:09 1.36160 105.72619 34196 ft 456 kts 89°
2026-05-01 12:09 1.36326 105.75776 34447 ft 455 kts 84°
2026-05-01 12:09 1.36805 105.78898 34696 ft 454 kts 78°
2026-05-01 12:09 1.37596 105.81954 34932 ft 454 kts 72°
2026-05-01 12:10 1.40963 105.90775 34997 ft 452 kts 69°
2026-05-01 12:11 1.44375 105.99564 35002 ft 452 kts 69°
2026-05-01 12:11 1.46651 106.05428 34999 ft 452 kts 69°
2026-05-01 12:12 1.48927 106.11289 34999 ft 452 kts 69°
2026-05-01 12:12 1.51202 106.17149 35000 ft 452 kts 69°
2026-05-01 12:13 1.53477 106.23008 35002 ft 452 kts 69°
2026-05-01 12:13 1.55753 106.28874 35002 ft 452 kts 69°
2026-05-01 12:14 1.58026 106.34733 34999 ft 452 kts 69°
2026-05-01 12:14 1.60284 106.40557 34999 ft 452 kts 69°
2026-05-01 12:15 1.62559 106.46423 35001 ft 452 kts 69°
2026-05-01 12:15 1.64308 106.50933 35005 ft 452 kts 69°
2026-05-01 12:16 1.65709 106.54549 35002 ft 452 kts 69°
2026-05-01 12:16 1.67983 106.60414 35007 ft 452 kts 69°
2026-05-01 12:17 1.70256 106.66276 34999 ft 452 kts 69°
2026-05-01 12:17 1.72530 106.72143 34997 ft 452 kts 69°
2026-05-01 12:18 1.74798 106.78007 35002 ft 452 kts 69°
2026-05-01 12:18 1.77067 106.83875 34999 ft 452 kts 69°
2026-05-01 12:19 1.79334 106.89738 35000 ft 452 kts 69°
2026-05-01 12:19 1.81603 106.95605 35000 ft 452 kts 69°
2026-05-01 12:20 1.83871 107.01470 35001 ft 452 kts 69°
2026-05-01 12:20 1.86123 107.07295 35003 ft 452 kts 69°
2026-05-01 12:21 1.88392 107.13162 34995 ft 452 kts 69°
2026-05-01 12:21 1.90658 107.19026 34994 ft 452 kts 69°
2026-05-01 12:22 1.92926 107.24892 35004 ft 452 kts 69°
2026-05-01 12:22 1.95193 107.30759 35001 ft 452 kts 69°
2026-05-01 12:23 1.97460 107.36626 34998 ft 452 kts 69°
2026-05-01 12:23 1.99727 107.42493 35002 ft 452 kts 69°
2026-05-01 12:24 2.02001 107.48355 34999 ft 452 kts 69°
2026-05-01 12:24 2.04289 107.54213 35002 ft 452 kts 69°
2026-05-01 12:25 2.07717 107.63004 34996 ft 452 kts 69°
2026-05-01 12:26 2.10001 107.68862 35004 ft 452 kts 69°
2026-05-01 12:26 2.13426 107.77654 34999 ft 452 kts 69°
2026-05-01 12:27 2.16850 107.86447 35006 ft 452 kts 69°
2026-05-01 12:28 2.20233 107.95210 35006 ft 452 kts 69°
2026-05-01 12:29 2.23630 108.04011 35007 ft 452 kts 69°
2026-05-01 12:29 2.27030 108.12815 35005 ft 452 kts 69°
2026-05-01 12:30 2.30428 108.21616 34999 ft 452 kts 69°
2026-05-01 12:31 2.32693 108.27483 34997 ft 452 kts 69°
2026-05-01 12:31 2.34959 108.33354 35000 ft 452 kts 69°
2026-05-01 12:32 2.37224 108.39223 35006 ft 452 kts 69°
2026-05-01 12:32 2.40619 108.48023 35002 ft 452 kts 69°
2026-05-01 12:33 2.42884 108.53893 34997 ft 452 kts 69°
2026-05-01 12:33 2.45148 108.59763 35001 ft 452 kts 69°
2026-05-01 12:34 2.47412 108.65636 35002 ft 452 kts 69°
2026-05-01 12:34 2.49674 108.71501 35000 ft 452 kts 69°
2026-05-01 12:35 2.51938 108.77374 35006 ft 452 kts 69°
2026-05-01 12:35 2.54185 108.83203 34999 ft 452 kts 69°
2026-05-01 12:36 2.56448 108.89073 35003 ft 452 kts 69°
2026-05-01 12:36 2.58712 108.94943 34995 ft 452 kts 69°
2026-05-01 12:37 2.60993 109.00808 35000 ft 452 kts 69°
2026-05-01 12:37 2.63274 109.06671 34998 ft 452 kts 69°
2026-05-01 12:38 2.65554 109.12535 34997 ft 452 kts 69°
2026-05-01 12:38 2.67833 109.18401 35003 ft 452 kts 69°
2026-05-01 12:39 2.70110 109.24264 34999 ft 452 kts 69°
2026-05-01 12:39 2.72387 109.30128 35001 ft 452 kts 69°
2026-05-01 12:40 2.74665 109.35993 34999 ft 452 kts 69°
2026-05-01 12:40 2.76944 109.41862 35001 ft 452 kts 69°
2026-05-01 12:41 2.79220 109.47726 35002 ft 452 kts 69°
2026-05-01 12:41 2.81497 109.53593 35000 ft 452 kts 69°
2026-05-01 12:42 2.83772 109.59457 34997 ft 452 kts 69°
2026-05-01 12:42 2.86049 109.65325 35004 ft 452 kts 69°
2026-05-01 12:43 2.88325 109.71193 34999 ft 452 kts 69°
2026-05-01 12:43 2.90585 109.77021 34999 ft 452 kts 69°
2026-05-01 12:44 2.92875 109.82927 35000 ft 452 kts 69°
2026-05-01 12:45 2.97409 109.94622 35006 ft 452 kts 69°
2026-05-01 12:45 2.99683 110.00487 34997 ft 452 kts 69°
2026-05-01 12:46 3.01957 110.06357 35000 ft 452 kts 69°
2026-05-01 12:46 3.04246 110.12266 35004 ft 452 kts 69°
2026-05-01 12:47 3.06504 110.18094 35003 ft 452 kts 69°
2026-05-01 12:47 3.08777 110.23963 35002 ft 452 kts 69°
2026-05-01 12:48 3.11049 110.29831 35002 ft 452 kts 69°
2026-05-01 12:48 3.13321 110.35701 34996 ft 452 kts 69°
2026-05-01 12:49 3.15593 110.41569 35000 ft 452 kts 69°
2026-05-01 12:49 3.17865 110.47440 35000 ft 452 kts 69°
2026-05-01 12:50 3.20136 110.53311 34999 ft 452 kts 69°
2026-05-01 12:50 3.22023 110.58188 35003 ft 452 kts 69°
2026-05-01 12:51 3.24678 110.65052 34998 ft 452 kts 69°
2026-05-01 12:52 3.27699 110.72863 35002 ft 452 kts 69°
2026-05-01 12:52 3.31104 110.81672 34996 ft 452 kts 69°
2026-05-01 12:53 3.34508 110.90480 35004 ft 452 kts 69°
2026-05-01 12:54 3.36777 110.96352 34997 ft 452 kts 69°
2026-05-01 12:54 3.40163 111.05119 35005 ft 452 kts 69°
2026-05-01 12:55 3.43565 111.13928 35004 ft 452 kts 69°
2026-05-01 12:56 3.45833 111.19803 34997 ft 452 kts 69°
2026-05-01 12:56 3.48099 111.25674 35003 ft 452 kts 69°
2026-05-01 12:57 3.50366 111.31548 34997 ft 452 kts 69°
2026-05-01 12:57 3.53764 111.40358 34995 ft 452 kts 69°
2026-05-01 12:58 3.56031 111.46236 35003 ft 452 kts 69°
2026-05-01 12:59 3.59428 111.55044 35003 ft 452 kts 69°
2026-05-01 12:59 3.62825 111.63858 35004 ft 452 kts 69°
2026-05-01 13:00 3.66205 111.72630 34997 ft 452 kts 69°
2026-05-01 13:01 3.69601 111.81446 34997 ft 452 kts 69°
2026-05-01 13:02 3.72994 111.90256 34998 ft 452 kts 69°
2026-05-01 13:07 3.97843 112.54878 34999 ft 452 kts 69°
2026-05-01 13:08 4.00100 112.60756 34995 ft 451 kts 69°
2026-05-01 13:08 4.02343 112.66598 34974 ft 448 kts 69°
2026-05-01 13:09 4.04580 112.72412 34961 ft 446 kts 69°
2026-05-01 13:09 4.06814 112.78207 34950 ft 445 kts 69°
2026-05-01 13:10 4.09056 112.84024 35004 ft 452 kts 69°
2026-05-01 13:10 4.11321 112.89904 35001 ft 452 kts 69°
2026-05-01 13:11 4.13585 112.95783 34998 ft 452 kts 69°
2026-05-01 13:11 4.15818 113.01584 35001 ft 440 kts 69°
2026-05-01 13:12 4.18046 113.07372 34999 ft 451 kts 69°
2026-05-01 13:12 4.20312 113.13261 35000 ft 452 kts 69°
2026-05-01 13:13 4.22574 113.19140 35005 ft 452 kts 69°
2026-05-01 13:13 4.24835 113.25019 35005 ft 452 kts 69°
2026-05-01 13:14 4.27096 113.30900 34999 ft 452 kts 69°
2026-05-01 13:14 4.29341 113.36740 35004 ft 452 kts 69°
2026-05-01 13:15 4.31601 113.42620 35002 ft 452 kts 69°
2026-05-01 13:15 4.33860 113.48499 34996 ft 452 kts 69°
2026-05-01 13:16 4.36119 113.54381 34998 ft 452 kts 69°
2026-05-01 13:16 4.38377 113.60261 35001 ft 452 kts 69°
2026-05-01 13:17 4.42908 113.72023 35003 ft 452 kts 69°
2026-05-01 13:18 4.46330 113.80838 35004 ft 452 kts 69°
2026-05-01 13:18 4.48608 113.86715 35004 ft 452 kts 69°
2026-05-01 13:19 4.50883 113.92590 35003 ft 452 kts 69°
2026-05-01 13:20 4.54296 114.01405 35005 ft 452 kts 69°
2026-05-01 13:20 4.56573 114.07285 34999 ft 452 kts 69°
2026-05-01 13:21 4.59959 114.16109 34998 ft 452 kts 69°
2026-05-01 13:21 4.62196 114.22005 35004 ft 452 kts 69°
2026-05-01 13:22 4.64434 114.27894 35001 ft 452 kts 69°
2026-05-01 13:22 4.66676 114.33787 35005 ft 452 kts 69°
2026-05-01 13:23 4.68902 114.39641 34757 ft 452 kts 69°
2026-05-01 13:23 4.70022 114.42587 34509 ft 452 kts 69°
2026-05-01 13:23 4.71140 114.45530 34261 ft 452 kts 69°
2026-05-01 13:24 4.72261 114.48478 34007 ft 453 kts 69°
2026-05-01 13:24 4.73383 114.51431 33749 ft 454 kts 69°
2026-05-01 13:24 4.74508 114.54393 33316 ft 455 kts 69°
2026-05-01 13:25 4.76777 114.60364 31501 ft 463 kts 69°
2026-05-01 13:25 4.77927 114.63392 30602 ft 465 kts 69°
2026-05-01 13:25 4.79069 114.66401 30023 ft 458 kts 69°
2026-05-01 13:25 4.80188 114.69349 29690 ft 446 kts 69°
2026-05-01 13:26 4.81282 114.72231 29415 ft 442 kts 69°
2026-05-01 13:26 4.82378 114.75118 28895 ft 443 kts 69°
2026-05-01 13:26 4.83469 114.77992 28377 ft 439 kts 69°
2026-05-01 13:26 4.84547 114.80833 27862 ft 432 kts 69°
2026-05-01 13:27 4.85607 114.83627 27353 ft 425 kts 69°
2026-05-01 13:27 4.86721 114.86346 26828 ft 419 kts 64°
2026-05-01 13:27 4.89797 114.91167 25884 ft 404 kts 50°
2026-05-01 13:28 4.93475 114.95318 24927 ft 392 kts 48°
2026-05-01 13:28 4.95270 114.97348 24464 ft 386 kts 48°
2026-05-01 13:29 4.98803 115.01350 23546 ft 383 kts 48°
2026-05-01 13:29 5.02302 115.05309 22632 ft 375 kts 48°
2026-05-01 13:30 5.09159 115.13067 20805 ft 374 kts 48°
2026-05-01 13:31 5.12582 115.16942 19907 ft 367 kts 48°
2026-05-01 13:31 5.17638 115.22642 18181 ft 374 kts 50°
2026-05-01 13:32 5.21077 115.26536 17500 ft 367 kts 50°
2026-05-01 13:33 5.26009 115.32130 16179 ft 349 kts 50°
2026-05-01 13:33 5.29169 115.35718 15332 ft 338 kts 50°
2026-05-01 13:34 5.32238 115.39198 14499 ft 328 kts 50°
2026-05-01 13:34 5.35303 115.42674 13956 ft 342 kts 50°
2026-05-01 13:35 5.38463 115.46254 13269 ft 346 kts 50°
2026-05-01 13:35 5.40072 115.48078 12387 ft 354 kts 50°
2026-05-01 13:35 5.43306 115.51743 11461 ft 342 kts 50°
2026-05-01 13:36 5.44730 115.53624 11069 ft 335 kts 58°
2026-05-01 13:36 5.45847 115.55644 10669 ft 328 kts 66°
2026-05-01 13:36 5.47580 115.59756 10170 ft 307 kts 68°
2026-05-01 13:37 5.48398 115.61681 10025 ft 294 kts 68°
2026-05-01 13:37 5.48926 115.62921 9895 ft 288 kts 68°
2026-05-01 13:37 5.49990 115.65421 9749 ft 294 kts 68°
2026-05-01 13:37 5.50790 115.67302 9535 ft 293 kts 68°
2026-05-01 13:38 5.52375 115.71027 8845 ft 287 kts 68°
2026-05-01 13:38 5.53152 115.72854 8501 ft 282 kts 68°
2026-05-01 13:38 5.53915 115.74649 8159 ft 278 kts 68°
2026-05-01 13:39 5.54727 115.76391 7818 ft 274 kts 61°
2026-05-01 13:39 5.55733 115.77998 7489 ft 270 kts 59°
2026-05-01 13:39 5.56730 115.79580 7158 ft 266 kts 59°
2026-05-01 13:39 5.57708 115.81146 6835 ft 263 kts 59°
2026-05-01 13:40 5.58348 115.82171 6623 ft 261 kts 59°
2026-05-01 13:40 5.59625 115.84222 6189 ft 257 kts 59°
2026-05-01 13:40 5.60250 115.85228 5975 ft 255 kts 59°
2026-05-01 13:40 5.61485 115.87214 5563 ft 252 kts 59°
2026-05-01 13:41 5.62412 115.88705 5379 ft 248 kts 59°
2026-05-01 13:41 5.63304 115.90138 5277 ft 235 kts 59°
2026-05-01 13:41 5.63878 115.91060 5192 ft 227 kts 59°
2026-05-01 13:41 5.64711 115.92371 4990 ft 220 kts 53°
2026-05-01 13:42 5.65806 115.93362 4954 ft 205 kts 31°
2026-05-01 13:42 5.67087 115.93933 4826 ft 203 kts 23°
2026-05-01 13:42 5.68403 115.94479 4656 ft 205 kts 23°
2026-05-01 13:42 5.69715 115.95033 4329 ft 203 kts 23°
2026-05-01 13:43 5.71010 115.95582 3999 ft 200 kts 23°
2026-05-01 13:43 5.72268 115.96114 3883 ft 191 kts 23°
2026-05-01 13:43 5.73451 115.96613 3783 ft 178 kts 23°
2026-05-01 13:43 5.74547 115.97070 3628 ft 170 kts 22°
2026-05-01 13:44 5.75632 115.97521 3368 ft 168 kts 22°
2026-05-01 13:44 5.76711 115.97967 3113 ft 167 kts 22°
2026-05-01 13:44 5.77771 115.98403 2990 ft 164 kts 22°
2026-05-01 13:44 5.78855 115.98844 2999 ft 168 kts 21°
2026-05-01 13:45 5.79675 115.99173 3008 ft 167 kts 22°
2026-05-01 13:45 5.80764 115.99618 2811 ft 172 kts 22°
2026-05-01 13:45 5.81874 116.00091 2464 ft 176 kts 25°
2026-05-01 13:45 5.83011 116.00582 2091 ft 180 kts 22°
2026-05-01 13:46 5.84158 116.01070 1722 ft 177 kts 23°
2026-05-01 13:46 5.85278 116.01545 1405 ft 171 kts 23°
2026-05-01 13:46 5.86343 116.01997 1169 ft 160 kts 22°
2026-05-01 13:46 5.87354 116.02425 987 ft 155 kts 22°
2026-05-01 13:47 5.88305 116.02829 774 ft 142 kts 22°
2026-05-01 13:47 5.89206 116.03211 602 ft 143 kts 22°
2026-05-01 13:47 5.90117 116.03597 412 ft 141 kts 23°
2026-05-01 13:47 5.91020 116.03980 166 ft 139 kts 22°
2026-05-01 13:48 5.91913 116.04349 54 ft 140 kts 23°
2026-05-01 13:48 5.92740 116.04700 29 ft 108 kts 23°
2026-05-01 13:48 5.93268 116.04925 29 ft 58 kts 22°
2026-05-01 13:48 5.93584 116.05056 29 ft 40 kts 24°
2026-05-01 13:49 5.93836 116.05167 29 ft 39 kts 28°
2026-05-01 13:49 5.94006 116.05310 29 ft 21 kts 51°
2026-05-01 13:49 5.94078 116.05410 29 ft 13 kts 76°
2026-05-01 13:49 5.94027 116.05433 29 ft 10 kts 205°
2026-05-01 13:50 5.93956 116.05402 29 ft 13 kts 203°
2026-05-01 13:50 5.93859 116.05362 29 ft 17 kts 202°
2026-05-01 13:50 5.93742 116.05313 29 ft 20 kts 202°
2026-05-01 13:50 5.93612 116.05257 29 ft 21 kts 203°
2026-05-01 13:51 5.93474 116.05199 29 ft 23 kts 202°
2026-05-01 13:51 5.93320 116.05134 29 ft 25 kts 203°
2026-05-01 13:51 5.93151 116.05063 29 ft 27 kts 203°
2026-05-01 13:51 5.92967 116.04985 29 ft 30 kts 202°
2026-05-01 13:52 5.92773 116.04903 29 ft 30 kts 204°
2026-05-01 13:52 5.92603 116.04830 29 ft 19 kts 203°
2026-05-01 13:52 5.92495 116.04785 29 ft 13 kts 202°
2026-05-01 13:52 5.92416 116.04790 29 ft 13 kts 132°
2026-05-01 13:53 5.92358 116.04845 29 ft 12 kts 155°
2026-05-01 13:53 5.92160 116.04926 29 ft 14 kts 157°
2026-05-01 13:53 5.92122 116.04951 29 ft 4 kts 112°
2026-05-01 13:54 5.92129 116.04991 29 ft 7 kts 76°
2026-05-01 13:54 5.92139 116.05015 29 ft 2 kts 65°
2026-05-01 13:54 5.92142 116.05024 29 ft 2 kts 67°
2026-05-01 13:54 5.92144 116.05027 29 ft 0 kts 68°